Volver al catálogo

STARLINK-35187

ActivoComunicacionesSSO
NORAD 65521·PAYLOAD·🇺🇸 United States

Lanzado Sep 6, 2025 desde Cape Canaveral Space Force Station

Loading…

Próximos Pases (próximas 24 horas)

TLE

ActualizadoSource: CelesTrak SupGP

Época: Sep 14, 2026, 21:22 UTC

1 65521C 25200B   26257.89076389 -.00019058  00000+0 -59174-3 0  2570
2 65521  97.2850 324.3273 0001207  87.6160 123.2789 15.33441784    17

Sigue STARLINK-35187 en tiempo real con AllMySat

Download on the App Store